Weather History for Corsicana, TX

Change the Weather History Date:

Friday, April 26, 2013

  Actual Average (KACT) Record (KACT)
Temperature  
Mean Temperature 70 °F 69 °F  
Max Temperature 79 °F 80 °F 97 °F (1902)
Min Temperature 61 °F 58 °F 38 °F (1910)
Degree Days  
Heating Degree Days 0 1  
Month to date heating degree days 74  
Since 1 July heating degree days 2132  
Cooling Degree Days 4 5  
Month to date cooling degree days 88  
Year to date cooling degree days 131  
Growing Degree Days 20 (Base 50)    
Moisture  
Dew Point 56 °F    
Average Humidity 64    
Maximum Humidity 78    
Minimum Humidity 45    
Precipitation  
Precipitation 0.00 in 0.10 in 4.31 in (1922)
Month to date precipitation 2.25  
Year to date precipitation 10.15  
Snow  
Snow 0.00 in 0.00 in 0.00 in ()
Month to date snowfall 0.2  
Since 1 July snowfall 1.2  
Snow Depth -    
Sea Level Pressure  
Sea Level Pressure 30.11 in    
Wind  
Wind Speed 10 mph (SSE)    
Max Wind Speed 18 mph    
Max Gust Speed 23 mph    
Visibility 9 miles    
Events      
T = Trace of Precipitation, MM = Missing Value Source: NWS Daily Summary

Daily Weather History Graph

Daily Weather History Graph

Search for Another Location

Airport:

Trip Planner

Search our weather history database for the weather conditions in past years. The results will help you decide how hot, cold, wet, or windy it might be!

Date:

Astronomy

Apr. 26, 2013 Rise Set
Actual Time 6:44 AM CDT 8:02 PM CDT
Civil Twilight 6:18 AM CDT 8:28 PM CDT
Nautical Twilight 5:48 AM CDT 8:59 PM CDT
Astronomical Twilight 5:16 AM CDT 9:31 PM CDT
Moon 9:21 PM CDT (4/26) 7:15 AM CDT (4/26)
Length of Visible Light 14h 09m
Length of Day
13h 18m
Full, 99% of the Moon is Illuminated
Apr 26
Full
May 2
Last Quarter
May 9
New
May 17
First Quarter
May 24
Full

Hourly Weather History & Observations

Time (CDT) Temp. Dew Point Humidity Pressure Visibility Wind Dir Wind Speed Gust Speed Precip Events Conditions
12:53 AM 63.0 °F 42.1 °F 46% 30.17 in 10.0 mi SE 12.7 mph - N/A   Clear
2:53 AM 63.0 °F 41.0 °F 45% 30.15 in 10.0 mi SSE 8.1 mph - N/A   Overcast
3:00 AM 62.6 °F 41.0 °F 45% 30.16 in 10.0 mi SE 8.1 mph - N/A   Overcast
3:53 AM 63.0 °F 42.1 °F 46% 30.14 in 10.0 mi ESE 6.9 mph - N/A   Overcast
4:53 AM 62.1 °F 43.0 °F 50% 30.14 in 10.0 mi ESE 4.6 mph - N/A   Overcast
5:53 AM 61.0 °F 45.0 °F 56% 30.13 in 10.0 mi ESE 6.9 mph - N/A   Overcast
6:53 AM 61.0 °F 45.0 °F 56% 30.14 in 10.0 mi ESE 6.9 mph - N/A   Overcast
7:53 AM 62.1 °F 48.0 °F 60% 30.17 in 10.0 mi East 3.5 mph - N/A   Overcast
8:53 AM 62.1 °F 48.9 °F 62% 30.17 in 10.0 mi East 6.9 mph - N/A   Overcast
9:53 AM 64.0 °F 53.1 °F 67% 30.17 in 10.0 mi SE 8.1 mph - N/A   Overcast
10:27 AM 66.2 °F 57.2 °F 73% 30.17 in 8.0 mi SE 16.1 mph - N/A   Overcast
10:36 AM 66.2 °F 57.2 °F 73% 30.18 in 8.0 mi SE 12.7 mph - N/A   Overcast
10:53 AM 64.9 °F 57.9 °F 78% 30.18 in 8.0 mi SSE 11.5 mph - N/A   Overcast
11:13 AM 68.0 °F 59.0 °F 73% 30.18 in 8.0 mi SSE 10.4 mph - N/A   Overcast
11:53 AM 71.1 °F 61.0 °F 70% 30.17 in 7.0 mi SSE 11.5 mph - N/A   Overcast
12:10 PM 71.6 °F 60.8 °F 69% 30.17 in 7.0 mi SSE 11.5 mph 18.4 mph N/A   Overcast
12:53 PM 71.1 °F 62.1 °F 73% 30.14 in 7.0 mi SSE 9.2 mph - N/A   Overcast
1:53 PM 73.9 °F 64.0 °F 71% 30.12 in 7.0 mi South 10.4 mph - N/A   Overcast
2:23 PM 75.2 °F 64.4 °F 69% 30.11 in 8.0 mi SSE 15.0 mph - N/A   Overcast
2:53 PM 77.0 °F 64.9 °F 66% 30.09 in 8.0 mi SSE 12.7 mph - N/A   Mostly Cloudy
3:53 PM 78.1 °F 64.0 °F 62% 30.06 in 9.0 mi South 13.8 mph - N/A   Overcast
4:53 PM 77.0 °F 64.0 °F 64% 30.01 in 9.0 mi SSE 13.8 mph - N/A   Mostly Cloudy
5:53 PM 77.0 °F 64.0 °F 64% 30.04 in 9.0 mi South 6.9 mph - N/A   Mostly Cloudy
6:53 PM 77.0 °F 64.0 °F 64% 30.02 in 9.0 mi South 5.8 mph - N/A   Scattered Clouds
7:53 PM 75.0 °F 64.9 °F 71% 30.01 in 9.0 mi South 4.6 mph - N/A   Overcast
8:53 PM 73.0 °F 64.9 °F 76% 30.02 in 10.0 mi South 6.9 mph - N/A   Mostly Cloudy
9:53 PM 73.9 °F 64.0 °F 71% 30.03 in 10.0 mi South 11.5 mph - N/A   Scattered Clouds
10:53 PM 73.9 °F 64.0 °F 71% 30.04 in 10.0 mi South 11.5 mph - N/A   Clear
11:53 PM 73.9 °F 63.0 °F 68% 30.05 in 10.0 mi South 18.4 mph 23.0 mph N/A   Clear